Regional Weather Roundup
Issued by NWS Columbia, SC

Home | Current Version | Previous Version | Text Only | Print | Product List | Glossary On
Versions: 1 2 3 4 5 6 7 8 9 10 11 12 13 14 15 16 17 18 19 20 21 22 23 24 25 26 27 28 29 30 31 32 33 34 35 36 37 38 39 40 41 42 43 44 45 46 47 48 49 50
000
ASUS42 KCAE 291210
RWRCAE
REGIONAL WEATHER ROUNDUP
NATIONAL WEATHER SERVICE COLUMBIA SC
800 AM EDT FRI JUL 29 2016

NOTE: "FAIR" INDICATES FEW OR NO CLOUDS BELOW 12,000 FEET WITH NO
SIGNIFICANT WEATHER AND/OR OBSTRUCTIONS TO VISIBILITY.

NOT ALL STATIONS ARE QUALITY CONTROLLED BY THE NATIONAL
WEATHER SERVICE. USE DATA WITH CAUTION...ESPECIALLY
DEWPOINT OBSERVATIONS.

SCZ001>056-GAZ040-063>065-077-291300-
...UPSTATE SOUTH CAROLINA...

CITY           SKY/WX    TMP DP  RH WIND       PRES   REMARKS
ANDERSON       SUNNY     77  71  82 W10       29.99R
6HR MIN TEMP:  75; 6HR MAX TEMP:  78;

LIBERTY        SUNNY     74  71  91 SW3       29.99R
6HR MIN TEMP:  71; 6HR MAX TEMP:  74;

SPARTANBURG    MOSUNNY   75  68  78 W7        29.97R
CLEMSON        SUNNY     76  70  82 W10       30.00R
6HR MIN TEMP:  74; 6HR MAX TEMP:  76;

GREENVILLE     MOSUNNY   75  70  84 NW7       30.00R
6HR MIN TEMP:  74; 6HR MAX TEMP:  77;

GREENWOOD      MOSUNNY   77  70  79 W12       29.99R
6HR MIN TEMP:  75; 6HR MAX TEMP:  79;

GREER          MOSUNNY   75  70  84 W7        29.97R
6HR MIN TEMP:  73; 6HR MAX TEMP:  77;

ROCK HILL      SUNNY     77  70  79 W6        29.97R
6HR MIN TEMP:  75; 6HR MAX TEMP:  81;

CHESTER        MOSUNNY   75  70  83 SW3       29.97R
LAURENS        MOSUNNY   77  72  83 CALM      29.97S


...CENTRAL SOUTH CAROLINA...

CITY           SKY/WX    TMP DP  RH WIND       PRES   REMARKS
COLUMBIA APT   MOSUNNY   81  70  69 SW8       29.95R
6HR MIN TEMP:  78; 6HR MAX TEMP:  83;

COLUMBIA OWENS MOSUNNY   80  70  71 W8        29.97R
6HR MIN TEMP:  78; 6HR MAX TEMP:  84;

MCENTIRE ANGB  MOSUNNY   80  70  73 W7        29.96R
6HR MIN TEMP:  75; 6HR MAX TEMP:  80;

ORANGEBURG     SUNNY     79  70  74 SW8       29.98R
6HR MIN TEMP:  74; 6HR MAX TEMP:  79;

SUMTER SHAW    MOSUNNY   80  70  69 W13       29.93R
6HR MIN TEMP:  78; 6HR MAX TEMP:  80;

NEWBERRY       SUNNY     77  72  83 SW7       30.00R
MANNING        FAIR      79  70  73 SW6       29.97R
LANCASTER      CLOUDY    77  73  88 W7        29.95S
WINNSBORO      PTSUNNY   77  70  78 W5        29.97R


...EASTERN AND COASTAL SOUTH CAROLINA...

CITY           SKY/WX    TMP DP  RH WIND       PRES   REMARKS
MYRTLE BEACH   SUNNY     82  70  65 W12       29.97R
N MYRTLE BCH   SUNNY     84  74  71 SW10      29.94R
6HR MIN TEMP:  80; 6HR MAX TEMP:  84;

CONWAY         FAIR      79  73  83 SW6       29.95S
MARION           N/A     79  72  78 SW8       29.94R
HARTSVILLE     FAIR      77  70  78 W3        29.94R
FLORENCE       SUNNY     81  70  69 SW10      29.94R
6HR MIN TEMP:  78; 6HR MAX TEMP:  82;

DARLINGTON     SUNNY     79  72  79 SW6       29.94R
6HR MIN TEMP:  75; 6HR MAX TEMP:  79;

CHARLESTON APT MOSUNNY   82  69  64 W8        29.98S
6HR MIN TEMP:  80; 6HR MAX TEMP:  85;

MOUNT PLEASANT FAIR      82  72  69 W3        29.98S
WALTERBORO     SUNNY     81  70  69 W7        30.00S
BEAUFORT       MOSUNNY   82  70  66 W10       30.00R
6HR MIN TEMP:  80; 6HR MAX TEMP:  83;



...EASTERN GEORGIA...

CITY           SKY/WX    TMP DP  RH WIND       PRES   REMARKS
AUGUSTA BUSH F SUNNY     79  71  76 W7        29.99R
6HR MIN TEMP:  77; 6HR MAX TEMP:  79;

AUGUSTA DANIEL MOSUNNY   80  71  74 W7        30.01R
6HR MIN TEMP:  79; 6HR MAX TEMP:  84;

WASHINGTON     FAIR      81  77  89 W6        30.01R
CLAXTON        FAIR      79  74  84 W3        30.03R
6HR MIN TEMP:  75; 6HR MAX TEMP:  79;

STATESBORO     SUNNY     81  73  77 W6        30.02R
6HR MIN TEMP:  78; 6HR MAX TEMP:  82;

SAVANNAH       MOSUNNY   80  71  74 W8        30.02R
6HR MIN TEMP:  77; 6HR MAX TEMP:  82;



...SOUTHERN NORTH CAROLINA...

CITY           SKY/WX    TMP DP  RH WIND       PRES   REMARKS
CHARLOTTE      MOSUNNY   78  69  73 W3        29.96R
6HR MIN TEMP:  75; 6HR MAX TEMP:  81;

MONROE         SUNNY     76  69  79 W7        29.95R
6HR MIN TEMP:  75; 6HR MAX TEMP:  81;

ROCKINGHAM     SUNNY     78  72  82 W7        29.93R
6HR MIN TEMP:  75; 6HR MAX TEMP:  80;

RUTHERFORDTON    N/A     74  73  96 CALM      29.98S
ASHEVILLE      SUNNY     71  66  84 N9        30.05R
6HR MIN TEMP:  69; 6HR MAX TEMP:  73; 6HR PCP:  0.01;


$$



USA.gov is the U.S. government's official web portal to all federal, state and local government web resources and services.